Location: Mascot Post Office (historical)
(40.2645°N, 99.5462°W)
Time: 02:07:46
(UTC+00:00)

Cosmos 1459 Rocket - Pass Details

Date: 14 July 2020
Orbit: 938 x 999 km, 83.0° (Epoch: 14 August)

Event Time Altitude Azimuth Distance (km) Brightness Sun altitude
Exits shadow 07:50:52 59° 152° (SSE) 1,087 3.9 -26.2°
Maximum altitude 07:51:57 72° 94° (E) 994 4.0 -26.2°
Drops below altitude 10° 07:58:05 10° 11° (N) 2,697 7.3 -25.8°
Sets 08:00:37 0° 10° (N) 3,656 8.3 -25.6°
